Weather History for Elmendorf AFB, AK

Change the Weather History Date:

Friday, March 1, 2013

  Actual Average Record
Temperature  
Mean Temperature 25 °F -  
Max Temperature 33 °F 27 °F 48 °F (1958)
Min Temperature 17 °F 10 °F -16 °F (1992)
Degree Days  
Heating Degree Days 40    
Moisture  
Dew Point 23 °F    
Average Humidity 89    
Maximum Humidity 100    
Minimum Humidity 75    
Precipitation  
Precipitation 0.00 in - - ()
Sea Level Pressure  
Sea Level Pressure 29.74 in    
Wind  
Wind Speed 1 mph (North)    
Max Wind Speed 7 mph    
Max Gust Speed -    
Visibility 8 miles    
Events Fog , Snow    
Averages and records for this station are not official NWS values.
T = Trace of Precipitation, MM = Missing Value Source: NWS Daily Summary

Daily Weather History Graph

Daily Weather History Graph

Search for Another Location

Airport:

Trip Planner

Search our weather history database for the weather conditions in past years. The results will help you decide how hot, cold, wet, or windy it might be!

Date:

Astronomy

Mar. 01, 2013 Rise Set
Actual Time 7:58 AM AKST 6:25 PM AKST
Civil Twilight 7:15 AM AKST 7:09 PM AKST
Nautical Twilight 6:25 AM AKST 7:59 PM AKST
Astronomical Twilight 5:34 AM AKST 8:50 PM AKST
Moon No Moon Rise 8:27 AM AKST (3/1)
Length of Visible Light 11h 54m
Length of Day
10h 26m
Waning Gibbous, 82% of the Moon is Illuminated
Mar 1
Waning Gibbous
Mar 4
Last Quarter
Mar 11
New
Mar 19
First Quarter
Mar 27
Full

Hourly Weather History & Observations

Time (AKST) Temp. Windchill Dew Point Humidity Pressure Visibility Wind Dir Wind Speed Gust Speed Precip Events Conditions
12:55 AM 21.7 °F - 18.5 °F 87% 29.40 in 10.0 mi Calm Calm - N/A   Clear
1:55 AM 24.6 °F - 20.1 °F 83% 29.43 in 10.0 mi Calm Calm - N/A   Mostly Cloudy
2:55 AM 25.2 °F - 21.9 °F 87% 29.45 in 10.0 mi Calm Calm - N/A   Overcast
3:55 AM 20.5 °F - 18.1 °F 91% 29.47 in 10.0 mi Calm Calm - N/A   Mostly Cloudy
4:55 AM 23.0 °F - 19.6 °F 87% 29.49 in 10.0 mi Calm Calm - N/A   Clear
5:55 AM 20.7 °F - 19.0 °F 93% 29.51 in 10.0 mi Calm Calm - N/A   Scattered Clouds
6:55 AM 23.0 °F 18.4 °F 20.3 °F 89% 29.53 in 10.0 mi East 3.5 mph - N/A   Scattered Clouds
7:55 AM 25.7 °F - 21.7 °F 85% 29.56 in 10.0 mi Calm Calm - N/A   Mostly Cloudy
8:55 AM 22.1 °F - 18.9 °F 87% 29.58 in 10.0 mi Calm Calm - N/A   Partly Cloudy
9:55 AM 24.1 °F - 20.3 °F 85% 29.61 in 10.0 mi Calm Calm - N/A   Mostly Cloudy
10:55 AM 26.1 °F - 22.1 °F 85% 29.65 in 10.0 mi Calm Calm - N/A   Clear
11:31 AM 28.4 °F - 23.0 °F 80% 29.67 in 10.0 mi Calm Calm - N/A   Mostly Cloudy
11:35 AM 28.4 °F - 23.0 °F 80% 29.67 in 10.0 mi Calm Calm - N/A   Mostly Cloudy
11:37 AM 28.4 °F - 24.8 °F 86% 29.67 in 10.0 mi Calm Calm - N/A   Mostly Cloudy
11:39 AM 28.4 °F - 24.8 °F 86% 29.67 in 10.0 mi Calm Calm - N/A   Mostly Cloudy
11:55 AM 29.5 °F - 25.5 °F 85% 29.68 in 3.0 mi Calm Calm - 0.00 in Snow Light Snow
12:10 PM 30.2 °F - 26.6 °F 86% 29.68 in 10.0 mi Calm Calm - N/A Snow Light Snow
12:12 PM 30.2 °F - 26.6 °F 86% 29.68 in 10.0 mi Calm Calm - N/A Snow Light Snow
12:38 PM 32.0 °F - 26.6 °F 80% 29.70 in 10.0 mi Calm Calm - N/A   Scattered Clouds
12:53 PM 33.8 °F - 26.6 °F 75% 29.71 in 10.0 mi Calm Calm - N/A Snow Light Snow
12:55 PM 33.1 °F - 27.3 °F 79% 29.71 in 10.0 mi Calm Calm - 0.00 in Snow Light Snow
1:35 PM 32.0 °F 25.6 °F 28.4 °F 87% 29.73 in 8.0 mi WNW 6.9 mph - N/A Snow Light Snow
1:55 PM 31.3 °F 27.9 °F 28.9 °F 91% 29.74 in 10.0 mi WNW 3.5 mph - 0.00 in Snow Light Snow
2:09 PM 32.0 °F 27.5 °F 28.4 °F 87% 29.74 in 10.0 mi WNW 4.6 mph - N/A Snow Light Snow
2:10 PM 32.0 °F 27.5 °F 28.4 °F 87% 29.74 in 10.0 mi WNW 4.6 mph - N/A Snow Light Snow
2:25 PM 32.0 °F 28.7 °F 28.4 °F 87% 29.75 in 2.5 mi WNW 3.5 mph - N/A Snow Light Snow
2:37 PM 30.2 °F 25.4 °F 30.2 °F 100% 29.75 in 3.0 mi WNW 4.6 mph - N/A Snow Light Snow
2:55 PM 32.0 °F 28.7 °F 28.9 °F 88% 29.76 in 2.5 mi North 3.5 mph - 0.00 in Snow Light Snow
3:02 PM 32.0 °F - 28.4 °F 87% 29.76 in 3.0 mi Calm Calm - N/A Snow Light Snow
3:09 PM 32.0 °F - 28.4 °F 87% 29.76 in 7.0 mi Calm Calm - N/A Snow Light Snow
3:16 PM 32.0 °F 28.7 °F 28.4 °F 87% 29.76 in 10.0 mi NNW 3.5 mph - N/A   Overcast
3:55 PM 31.1 °F 25.4 °F 28.4 °F 90% 29.78 in 10.0 mi NE 5.8 mph - 0.00 in   Mostly Cloudy
4:03 PM 30.2 °F 24.3 °F 28.4 °F 93% 29.78 in 10.0 mi NE 5.8 mph - N/A   Mostly Cloudy
4:22 PM 30.2 °F 23.4 °F 28.4 °F 93% 29.78 in 10.0 mi NNE 6.9 mph - N/A   Scattered Clouds
4:55 PM 29.8 °F 23.9 °F 27.1 °F 90% 29.79 in 10.0 mi NE 5.8 mph - 0.00 in   Mostly Cloudy
5:55 PM 30.4 °F 24.5 °F 25.9 °F 83% 29.81 in 10.0 mi ENE 5.8 mph - N/A   Mostly Cloudy
6:44 PM 30.2 °F - 26.6 °F 86% 29.83 in 10.0 mi Calm Calm - N/A   Scattered Clouds
6:54 PM 28.4 °F - 24.8 °F 86% 29.83 in 10.0 mi Calm Calm - N/A   Mostly Cloudy
6:55 PM 28.8 °F - 25.3 °F 87% 29.83 in 10.0 mi Calm Calm - 0.00 in   Mostly Cloudy
7:55 PM 28.0 °F - 26.4 °F 94% 29.86 in 10.0 mi Calm Calm - N/A   Mostly Cloudy
8:55 PM 23.5 °F - 23.0 °F 98% 29.88 in 10.0 mi Calm Calm - N/A   Scattered Clouds
9:55 PM 23.2 °F - 22.8 °F 99% 29.89 in 10.0 mi Calm Calm - N/A   Overcast
10:55 PM 21.4 °F - 21.0 °F 99% 29.91 in 10.0 mi Calm Calm - N/A   Mostly Cloudy
11:45 PM 19.4 °F - 17.6 °F 93% 29.93 in 2.0 mi Calm Calm - N/A   Overcast
11:46 PM 17.6 °F - 17.6 °F 100% 29.93 in 1.5 mi Calm Calm - N/A   Overcast
11:47 PM 17.6 °F - 15.8 °F 93% 29.93 in 1.2 mi Calm Calm - N/A   Overcast
11:48 PM 17.6 °F - 15.8 °F 93% 29.94 in 1.0 mi Calm Calm - N/A   Overcast
11:50 PM 17.6 °F - 15.8 °F 93% 29.94 in 0.8 mi Calm Calm - N/A   Overcast
11:52 PM 17.6 °F - 15.8 °F 93% 29.94 in 0.5 mi Calm Calm - N/A Fog Light Freezing Fog
11:53 PM 17.6 °F - 15.8 °F 93% 29.94 in 0.5 mi Calm Calm - N/A Fog Light Freezing Fog
11:55 PM 17.4 °F - 16.5 °F 96% 29.94 in 0.5 mi Calm Calm - N/A Fog Light Freezing Fog
11:59 PM 17.6 °F - 15.8 °F 93% 29.94 in 0.2 mi Calm Calm - N/A Fog Light Freezing Fog